Time,TemperatureF,DewpointF,PressureIn,WindDirection,WindDirectionDegrees,WindSpeedMPH,WindSpeedGustMPH,Humidity,HourlyPrecipIn,Conditions,Clouds,dailyrainin,SoftwareType,DateUTC
2013-06-04 00:01:00,49.6,46.2,30.07,ESE,102,0.0,1.0,88,0.00,,,0.00,meteohub,2013-06-04 04:01:00,
2013-06-04 00:02:00,49.6,46.2,30.07,East,101,0.0,1.0,88,0.00,,,0.00,meteohub,2013-06-04 04:02:00,
2013-06-04 00:07:00,49.6,46.2,30.07,ESE,102,0.0,1.0,88,0.00,,,0.00,meteohub,2013-06-04 04:07:00,
2013-06-04 00:12:00,49.5,46.0,30.08,ESE,102,0.0,1.0,88,0.00,,,0.00,meteohub,2013-06-04 04:12:00,
2013-06-04 00:17:00,49.3,46.2,30.08,East,101,0.0,0.0,89,0.00,,,0.00,meteohub,2013-06-04 04:17:00,
2013-06-04 00:22:00,49.1,46.2,30.08,East,101,0.0,0.0,90,0.00,,,0.00,meteohub,2013-06-04 04:22:00,
2013-06-04 00:27:00,48.9,46.0,30.08,East,101,1.0,1.0,90,0.00,,,0.00,meteohub,2013-06-04 04:27:00,
2013-06-04 00:32:00,48.9,46.4,30.09,ESE,102,0.0,1.0,91,0.00,,,0.00,meteohub,2013-06-04 04:32:00,
2013-06-04 00:37:00,48.9,46.4,30.09,East,101,0.0,1.0,91,0.00,,,0.00,meteohub,2013-06-04 04:37:00,
2013-06-04 00:42:00,48.7,46.2,30.09,ESE,102,1.0,1.0,91,0.00,,,0.00,meteohub,2013-06-04 04:42:00,
2013-06-04 00:47:00,48.6,46.0,30.09,ESE,102,0.0,1.0,91,0.00,,,0.00,meteohub,2013-06-04 04:47:00,
2013-06-04 00:52:00,48.4,46.2,30.09,ESE,102,1.0,1.0,92,0.00,,,0.00,meteohub,2013-06-04 04:52:00,
2013-06-04 00:57:00,48.4,46.2,30.09,East,98,1.0,1.0,92,0.00,,,0.00,meteohub,2013-06-04 04:57:00,
2013-06-04 01:03:00,48.4,46.2,30.09,East,95,1.0,2.0,92,0.00,,,0.00,meteohub,2013-06-04 05:03:00,
2013-06-04 01:08:00,48.4,46.2,30.09,East,95,0.0,2.0,92,0.00,,,0.00,meteohub,2013-06-04 05:08:00,
2013-06-04 01:13:00,48.2,46.0,30.10,East,95,0.0,2.0,92,0.00,,,0.00,meteohub,2013-06-04 05:13:00,
2013-06-04 01:18:00,48.0,45.9,30.10,East,95,0.0,1.0,92,0.00,,,0.00,meteohub,2013-06-04 05:18:00,
2013-06-04 01:23:00,47.8,45.7,30.10,East,95,0.0,1.0,92,0.00,,,0.00,meteohub,2013-06-04 05:23:00,
2013-06-04 01:28:00,47.8,45.7,30.10,East,96,0.0,1.0,92,0.00,,,0.00,meteohub,2013-06-04 05:28:00,
2013-06-04 01:33:00,48.0,45.9,30.10,East,96,0.0,0.0,92,0.00,,,0.00,meteohub,2013-06-04 05:33:00,
2013-06-04 01:38:00,47.8,45.7,30.10,East,96,0.0,0.0,92,0.00,,,0.00,meteohub,2013-06-04 05:38:00,
2013-06-04 01:43:00,47.7,45.7,30.10,East,96,0.0,0.0,93,0.00,,,0.00,meteohub,2013-06-04 05:43:00,
2013-06-04 01:48:00,47.8,45.9,30.11,East,96,0.0,1.0,93,0.00,,,0.00,meteohub,2013-06-04 05:48:00,
2013-06-04 01:53:00,47.7,45.7,30.11,East,96,0.0,1.0,93,0.00,,,0.00,meteohub,2013-06-04 05:53:00,
2013-06-04 01:58:00,47.5,45.5,30.11,East,96,0.0,1.0,93,0.00,,,0.00,meteohub,2013-06-04 05:58:00,
2013-06-04 02:03:00,47.5,45.5,30.11,East,95,0.0,0.0,93,0.00,,,0.00,meteohub,2013-06-04 06:03:00,
2013-06-04 02:08:00,47.5,45.5,30.12,East,94,0.0,1.0,93,0.00,,,0.00,meteohub,2013-06-04 06:08:00,
2013-06-04 02:13:00,47.1,45.1,30.12,East,95,0.0,1.0,93,0.00,,,0.00,meteohub,2013-06-04 06:13:00,
2013-06-04 02:18:00,47.1,45.1,30.12,East,95,0.0,1.0,93,0.00,,,0.00,meteohub,2013-06-04 06:18:00,
2013-06-04 02:23:00,47.3,45.3,30.12,East,91,0.0,1.0,93,0.00,,,0.00,meteohub,2013-06-04 06:23:00,
2013-06-04 02:28:00,47.5,45.5,30.12,East,91,0.0,1.0,93,0.00,,,0.00,meteohub,2013-06-04 06:28:00,
2013-06-04 02:33:00,47.5,45.3,30.12,East,91,0.0,1.0,92,0.00,,,0.00,meteohub,2013-06-04 06:33:00,
2013-06-04 02:38:00,47.5,45.3,30.12,East,90,0.0,1.0,92,0.00,,,0.00,meteohub,2013-06-04 06:38:00,
2013-06-04 02:43:00,47.7,45.5,30.12,East,90,0.0,1.0,92,0.00,,,0.00,meteohub,2013-06-04 06:43:00,
2013-06-04 02:48:00,48.0,45.5,30.12,East,90,0.0,1.0,91,0.00,,,0.00,meteohub,2013-06-04 06:48:00,
2013-06-04 02:53:00,48.0,45.5,30.11,East,90,0.0,1.0,91,0.00,,,0.00,meteohub,2013-06-04 06:53:00,
2013-06-04 02:58:00,48.0,45.5,30.11,East,90,0.0,1.0,91,0.00,,,0.00,meteohub,2013-06-04 06:58:00,
2013-06-04 03:03:00,48.0,45.1,30.11,East,91,0.0,0.0,90,0.00,,,0.00,meteohub,2013-06-04 07:03:00,
2013-06-04 03:08:00,48.0,45.1,30.11,East,91,0.0,0.0,90,0.00,,,0.00,meteohub,2013-06-04 07:08:00,
2013-06-04 03:13:00,48.4,45.5,30.11,ENE,74,2.0,2.0,90,0.00,,,0.00,meteohub,2013-06-04 07:13:00,
2013-06-04 03:19:00,48.7,45.7,30.11,ENE,72,0.0,1.0,89,0.00,,,0.00,meteohub,2013-06-04 07:19:00,
2013-06-04 03:24:00,48.9,45.5,30.11,NNE,20,1.0,2.0,88,0.00,,,0.00,meteohub,2013-06-04 07:24:00,
2013-06-04 03:29:00,49.3,45.5,30.11,ENE,59,0.0,2.0,87,0.00,,,0.00,meteohub,2013-06-04 07:29:00,
2013-06-04 03:34:00,49.6,45.7,30.11,NE,47,2.0,3.0,86,0.00,,,0.00,meteohub,2013-06-04 07:34:00,
2013-06-04 03:39:00,49.8,45.1,30.10,ENE,72,2.0,3.0,84,0.00,,,0.00,meteohub,2013-06-04 07:39:00,
2013-06-04 03:44:00,50.2,45.1,30.11,ENE,60,0.0,3.0,83,0.00,,,0.00,meteohub,2013-06-04 07:44:00,
2013-06-04 03:49:00,50.2,45.1,30.11,ENE,59,0.0,3.0,83,0.00,,,0.00,meteohub,2013-06-04 07:49:00,
2013-06-04 03:54:00,50.2,45.0,30.11,NNE,20,0.0,3.0,82,0.00,,,0.00,meteohub,2013-06-04 07:54:00,
2013-06-04 03:59:00,50.4,44.8,30.11,ENE,60,2.0,3.0,81,0.00,,,0.00,meteohub,2013-06-04 07:59:00,
2013-06-04 04:04:00,50.2,44.6,30.11,North,4,2.0,3.0,81,0.00,,,0.00,meteohub,2013-06-04 08:04:00,
2013-06-04 04:09:00,50.2,45.0,30.11,NNW,331,2.0,3.0,82,0.00,,,0.00,meteohub,2013-06-04 08:09:00,
2013-06-04 04:14:00,49.8,44.6,30.12,North,359,0.0,3.0,82,0.00,,,0.00,meteohub,2013-06-04 08:14:00,
2013-06-04 04:19:00,49.8,44.8,30.12,NE,39,2.0,3.0,83,0.00,,,0.00,meteohub,2013-06-04 08:19:00,
2013-06-04 04:24:00,49.6,44.8,30.12,ENE,74,0.0,3.0,83,0.00,,,0.00,meteohub,2013-06-04 08:24:00,
2013-06-04 04:29:00,49.3,44.4,30.12,ENE,74,0.0,2.0,83,0.00,,,0.00,meteohub,2013-06-04 08:29:00,
2013-06-04 04:34:00,49.1,44.4,30.12,ENE,74,0.0,2.0,84,0.00,,,0.00,meteohub,2013-06-04 08:34:00,
2013-06-04 04:39:00,48.9,44.2,30.12,ENE,74,0.0,1.0,84,0.00,,,0.00,meteohub,2013-06-04 08:39:00,
2013-06-04 04:44:00,48.9,44.2,30.12,ENE,73,0.0,1.0,84,0.00,,,0.00,meteohub,2013-06-04 08:44:00,
2013-06-04 04:49:00,49.1,44.4,30.12,ENE,73,1.0,1.0,84,0.00,,,0.00,meteohub,2013-06-04 08:49:00,
2013-06-04 04:54:00,49.5,44.6,30.11,ENE,72,2.0,2.0,83,0.00,,,0.00,meteohub,2013-06-04 08:54:00,
2013-06-04 04:59:00,49.5,44.8,30.11,ENE,63,1.0,2.0,84,0.00,,,0.00,meteohub,2013-06-04 08:59:00,
2013-06-04 05:04:00,49.1,44.4,30.11,NNE,18,2.0,3.0,84,0.00,,,0.00,meteohub,2013-06-04 09:04:00,
2013-06-04 05:10:00,48.7,44.4,30.11,NE,54,0.0,3.0,85,0.00,,,0.00,meteohub,2013-06-04 09:10:00,
2013-06-04 05:15:00,48.9,44.2,30.12,NNE,32,1.0,3.0,84,0.00,,,0.00,meteohub,2013-06-04 09:15:00,
2013-06-04 05:20:00,49.3,44.6,30.12,NE,34,2.0,3.0,84,0.00,,,0.00,meteohub,2013-06-04 09:20:00,
2013-06-04 05:25:00,49.3,44.4,30.12,NE,34,1.0,3.0,83,0.00,,,0.00,meteohub,2013-06-04 09:25:00,
2013-06-04 05:30:00,49.6,44.4,30.12,ENE,77,1.0,3.0,82,0.00,,,0.00,meteohub,2013-06-04 09:30:00,
2013-06-04 05:35:00,49.8,44.2,30.12,NE,50,2.0,4.0,81,0.00,,,0.00,meteohub,2013-06-04 09:35:00,
2013-06-04 05:40:00,50.2,44.6,30.12,East,79,3.0,4.0,81,0.00,,,0.00,meteohub,2013-06-04 09:40:00,
2013-06-04 05:45:00,50.4,44.4,30.12,ENE,77,2.0,6.0,80,0.00,,,0.00,meteohub,2013-06-04 09:45:00,
2013-06-04 05:50:00,50.4,44.4,30.12,ENE,77,2.0,6.0,80,0.00,,,0.00,meteohub,2013-06-04 09:50:00,
2013-06-04 05:55:00,50.4,44.4,30.12,ENE,77,3.0,9.0,80,0.00,,,0.00,meteohub,2013-06-04 09:55:00,
2013-06-04 06:00:00,50.4,44.4,30.12,ENE,57,4.0,9.0,80,0.00,,,0.00,meteohub,2013-06-04 10:00:00,
2013-06-04 06:05:00,50.4,44.4,30.12,ESE,110,4.0,7.0,80,0.00,,,0.00,meteohub,2013-06-04 10:05:00,
2013-06-04 06:10:00,50.4,44.4,30.13,East,86,5.0,7.0,80,0.00,,,0.00,meteohub,2013-06-04 10:10:00,
2013-06-04 06:15:00,50.4,44.4,30.13,East,88,6.0,8.0,80,0.00,,,0.00,meteohub,2013-06-04 10:15:00,
2013-06-04 06:20:00,50.4,44.4,30.13,ENE,70,7.0,8.0,80,0.00,,,0.00,meteohub,2013-06-04 10:20:00,
2013-06-04 06:25:00,50.4,44.1,30.14,East,95,5.0,9.0,79,0.00,,,0.00,meteohub,2013-06-04 10:25:00,
2013-06-04 06:30:00,50.5,43.9,30.14,East,79,7.0,9.0,78,0.00,,,0.00,meteohub,2013-06-04 10:30:00,
2013-06-04 06:35:00,50.7,44.1,30.14,ENE,72,7.0,10.0,78,0.00,,,0.00,meteohub,2013-06-04 10:35:00,
2013-06-04 06:41:00,50.9,44.2,30.14,ENE,70,4.0,10.0,78,0.00,,,0.00,meteohub,2013-06-04 10:41:00,
2013-06-04 06:46:00,50.7,44.1,30.14,ESE,105,6.0,9.0,78,0.00,,,0.00,meteohub,2013-06-04 10:46:00,
2013-06-04 06:51:00,51.1,44.4,30.14,NE,55,2.0,9.0,78,0.00,,,0.00,meteohub,2013-06-04 10:51:00,
2013-06-04 06:56:00,51.3,44.2,30.14,NE,41,3.0,9.0,77,0.00,,,0.00,meteohub,2013-06-04 10:56:00,
2013-06-04 07:01:00,51.4,44.4,30.15,East,81,2.0,9.0,77,0.00,,,0.00,meteohub,2013-06-04 11:01:00,
2013-06-04 07:06:00,51.6,44.2,30.15,East,98,1.0,7.0,76,0.00,,,0.00,meteohub,2013-06-04 11:06:00,
2013-06-04 07:12:00,51.6,43.9,30.15,ENE,66,5.0,7.0,75,0.00,,,0.00,meteohub,2013-06-04 11:12:00,
2013-06-04 07:17:00,51.6,43.9,30.15,East,99,3.0,7.0,75,0.00,,,0.00,meteohub,2013-06-04 11:17:00,
2013-06-04 07:22:00,52.0,44.6,30.16,SE,125,1.0,7.0,76,0.00,,,0.00,meteohub,2013-06-04 11:22:00,
2013-06-04 07:27:00,51.8,44.1,30.16,East,91,2.0,7.0,75,0.00,,,0.00,meteohub,2013-06-04 11:27:00,
2013-06-04 07:32:00,51.6,43.9,30.16,ESE,116,5.0,7.0,75,0.00,,,0.00,meteohub,2013-06-04 11:32:00,
2013-06-04 07:37:00,51.4,43.7,30.15,ENE,65,3.0,8.0,75,0.00,,,0.00,meteohub,2013-06-04 11:37:00,
2013-06-04 07:42:00,51.3,43.9,30.15,East,97,3.0,8.0,76,0.00,,,0.00,meteohub,2013-06-04 11:42:00,
2013-06-04 07:47:00,51.1,43.7,30.15,ENE,77,4.0,8.0,76,0.00,,,0.00,meteohub,2013-06-04 11:47:00,
2013-06-04 07:52:00,51.4,44.1,30.15,ENE,64,6.0,8.0,76,0.00,,,0.00,meteohub,2013-06-04 11:52:00,
2013-06-04 07:57:00,51.6,43.9,30.15,East,90,4.0,8.0,75,0.00,,,0.00,meteohub,2013-06-04 11:57:00,
2013-06-04 08:02:00,52.2,44.8,30.16,ENE,67,3.0,8.0,76,0.00,,,0.00,meteohub,2013-06-04 12:02:00,
2013-06-04 08:08:00,52.5,44.8,30.16,SE,126,1.0,9.0,75,0.00,,,0.00,meteohub,2013-06-04 12:08:00,
2013-06-04 08:13:00,53.2,45.1,30.16,East,86,3.0,9.0,74,0.00,,,0.00,meteohub,2013-06-04 12:13:00,
2013-06-04 08:18:00,53.8,45.3,30.16,ESE,103,6.0,8.0,73,0.00,,,0.00,meteohub,2013-06-04 12:18:00,
2013-06-04 08:23:00,54.0,44.8,30.16,East,92,5.0,9.0,71,0.00,,,0.00,meteohub,2013-06-04 12:23:00,
2013-06-04 08:28:00,54.3,45.9,30.16,East,79,6.0,9.0,73,0.00,,,0.00,meteohub,2013-06-04 12:28:00,
2013-06-04 08:33:00,54.7,45.1,30.16,ESE,110,6.0,10.0,70,0.00,,,0.00,meteohub,2013-06-04 12:33:00,
2013-06-04 08:38:00,55.0,45.5,30.17,ESE,102,8.0,10.0,70,0.00,,,0.00,meteohub,2013-06-04 12:38:00,
2013-06-04 08:43:00,55.0,45.1,30.17,ENE,74,9.0,12.0,69,0.00,,,0.00,meteohub,2013-06-04 12:43:00,
2013-06-04 08:48:00,55.2,44.4,30.17,ESE,110,5.0,12.0,67,0.00,,,0.00,meteohub,2013-06-04 12:48:00,
2013-06-04 08:53:00,55.6,45.1,30.17,East,89,5.0,11.0,68,0.00,,,0.00,meteohub,2013-06-04 12:53:00,
2013-06-04 08:58:00,55.9,45.1,30.17,ESE,117,7.0,11.0,67,0.00,,,0.00,meteohub,2013-06-04 12:58:00,
2013-06-04 09:03:00,56.5,45.7,30.16,ESE,118,7.0,8.0,67,0.00,,,0.00,meteohub,2013-06-04 13:03:00,
2013-06-04 09:08:00,56.5,45.7,30.16,East,95,7.0,8.0,67,0.00,,,0.00,meteohub,2013-06-04 13:08:00,
2013-06-04 09:13:00,57.0,47.7,30.16,East,80,4.0,10.0,71,0.00,,,0.00,meteohub,2013-06-04 13:13:00,
2013-06-04 09:19:00,57.2,46.4,30.16,East,88,4.0,10.0,67,0.00,,,0.00,meteohub,2013-06-04 13:19:00,
2013-06-04 09:24:00,57.6,46.8,30.16,ESE,123,5.0,9.0,67,0.00,,,0.00,meteohub,2013-06-04 13:24:00,
2013-06-04 09:29:00,57.9,46.9,30.16,East,84,5.0,9.0,67,0.00,,,0.00,meteohub,2013-06-04 13:29:00,
2013-06-04 09:34:00,58.1,46.8,30.16,SE,129,2.0,9.0,66,0.00,,,0.00,meteohub,2013-06-04 13:34:00,
2013-06-04 09:39:00,58.5,47.1,30.17,ENE,78,1.0,9.0,66,0.00,,,0.00,meteohub,2013-06-04 13:39:00,
2013-06-04 09:44:00,59.0,47.3,30.16,SE,138,3.0,9.0,65,0.00,,,0.00,meteohub,2013-06-04 13:44:00,
2013-06-04 09:49:00,59.2,47.5,30.17,SE,126,7.0,9.0,65,0.00,,,0.00,meteohub,2013-06-04 13:49:00,
2013-06-04 09:54:00,59.4,47.1,30.17,East,83,4.0,10.0,64,0.00,,,0.00,meteohub,2013-06-04 13:54:00,
2013-06-04 09:59:00,59.5,47.3,30.17,East,100,8.0,10.0,64,0.00,,,0.00,meteohub,2013-06-04 13:59:00,
2013-06-04 10:04:00,59.7,46.8,30.17,NE,39,5.0,10.0,62,0.00,,,0.00,meteohub,2013-06-04 14:04:00,
2013-06-04 10:09:00,59.7,46.8,30.16,East,87,5.0,10.0,62,0.00,,,0.00,meteohub,2013-06-04 14:09:00,
2013-06-04 10:14:00,60.1,47.5,30.16,East,95,7.0,11.0,63,0.00,,,0.00,meteohub,2013-06-04 14:14:00,
2013-06-04 10:19:00,60.1,46.2,30.16,ENE,68,7.0,11.0,60,0.00,,,0.00,meteohub,2013-06-04 14:19:00,
2013-06-04 10:24:00,59.9,45.5,30.16,ENE,61,9.0,13.0,59,0.00,,,0.00,meteohub,2013-06-04 14:24:00,
2013-06-04 10:29:00,60.3,47.1,30.16,East,101,6.0,13.0,62,0.00,,,0.00,meteohub,2013-06-04 14:29:00,
2013-06-04 10:34:00,60.8,48.2,30.17,East,83,3.0,13.0,63,0.00,,,0.00,meteohub,2013-06-04 14:34:00,
2013-06-04 10:39:00,61.2,47.7,30.17,East,93,3.0,13.0,61,0.00,,,0.00,meteohub,2013-06-04 14:39:00,
2013-06-04 10:44:00,61.3,47.3,30.17,NE,45,4.0,9.0,60,0.00,,,0.00,meteohub,2013-06-04 14:44:00,
2013-06-04 10:49:00,61.9,47.5,30.17,ESE,116,7.0,9.0,59,0.00,,,0.00,meteohub,2013-06-04 14:49:00,
2013-06-04 10:54:00,61.9,47.5,30.16,East,96,3.0,9.0,59,0.00,,,0.00,meteohub,2013-06-04 14:54:00,
2013-06-04 10:59:00,61.9,46.9,30.16,East,87,6.0,9.0,58,0.00,,,0.00,meteohub,2013-06-04 14:59:00,
2013-06-04 11:04:00,62.4,48.4,30.16,ESE,107,6.0,9.0,60,0.00,,,0.00,meteohub,2013-06-04 15:04:00,
2013-06-04 11:09:00,62.6,47.7,30.16,SE,138,5.0,9.0,58,0.00,,,0.00,meteohub,2013-06-04 15:09:00,
2013-06-04 11:15:00,62.8,47.3,30.16,ESE,122,4.0,9.0,57,0.00,,,0.00,meteohub,2013-06-04 15:15:00,
2013-06-04 11:20:00,63.0,48.4,30.17,SE,124,6.0,9.0,59,0.00,,,0.00,meteohub,2013-06-04 15:20:00,
2013-06-04 11:25:00,63.1,48.2,30.17,ESE,110,5.0,9.0,58,0.00,,,0.00,meteohub,2013-06-04 15:25:00,
2013-06-04 11:30:00,63.3,48.4,30.16,East,82,6.0,9.0,58,0.00,,,0.00,meteohub,2013-06-04 15:30:00,
2013-06-04 11:35:00,63.0,46.9,30.16,East,80,2.0,9.0,56,0.00,,,0.00,meteohub,2013-06-04 15:35:00,
2013-06-04 11:40:00,63.3,48.4,30.16,SSE,148,3.0,8.0,58,0.00,,,0.00,meteohub,2013-06-04 15:40:00,
2013-06-04 11:45:00,64.0,48.0,30.16,NNE,29,3.0,8.0,56,0.00,,,0.00,meteohub,2013-06-04 15:45:00,
2013-06-04 11:50:00,64.2,49.1,30.16,ENE,74,3.0,8.0,58,0.00,,,0.00,meteohub,2013-06-04 15:50:00,
2013-06-04 11:55:00,64.6,50.4,30.16,SSE,149,1.0,8.0,60,0.00,,,0.00,meteohub,2013-06-04 15:55:00,
2013-06-04 12:00:00,64.9,48.9,30.16,ESE,113,6.0,8.0,56,0.00,,,0.00,meteohub,2013-06-04 16:00:00,
2013-06-04 12:05:00,64.8,49.1,30.16,SE,143,4.0,8.0,57,0.00,,,0.00,meteohub,2013-06-04 16:05:00,
2013-06-04 12:10:00,64.9,48.9,30.16,SE,136,2.0,8.0,56,0.00,,,0.00,meteohub,2013-06-04 16:10:00,
2013-06-04 12:15:00,65.7,49.5,30.16,East,85,1.0,8.0,56,0.00,,,0.00,meteohub,2013-06-04 16:15:00,
2013-06-04 12:20:00,66.0,49.5,30.15,ENE,76,0.0,7.0,55,0.00,,,0.00,meteohub,2013-06-04 16:20:00,
2013-06-04 12:25:00,65.8,49.3,30.15,ENE,69,3.0,9.0,55,0.00,,,0.00,meteohub,2013-06-04 16:25:00,
2013-06-04 12:30:00,66.0,49.8,30.15,SSE,163,1.0,9.0,56,0.00,,,0.00,meteohub,2013-06-04 16:30:00,
2013-06-04 12:35:00,66.7,50.0,30.15,East,95,4.0,10.0,55,0.00,,,0.00,meteohub,2013-06-04 16:35:00,
2013-06-04 12:40:00,66.9,49.3,30.14,SE,138,2.0,8.0,53,0.00,,,0.00,meteohub,2013-06-04 16:40:00,
2013-06-04 12:45:00,67.1,49.5,30.14,SSE,147,2.0,8.0,53,0.00,,,0.00,meteohub,2013-06-04 16:45:00,
2013-06-04 12:50:00,67.3,50.0,30.14,SSE,158,5.0,8.0,54,0.00,,,0.00,meteohub,2013-06-04 16:50:00,
2013-06-04 12:55:00,67.1,49.5,30.15,SSE,163,1.0,7.0,53,0.00,,,0.00,meteohub,2013-06-04 16:55:00,
2013-06-04 13:00:00,67.6,50.9,30.15,East,94,3.0,9.0,55,0.00,,,0.00,meteohub,2013-06-04 17:00:00,
2013-06-04 13:05:00,67.8,50.0,30.15,East,99,3.0,9.0,53,0.00,,,0.00,meteohub,2013-06-04 17:05:00,
2013-06-04 13:10:00,67.8,50.5,30.15,ESE,120,1.0,9.0,54,0.00,,,0.00,meteohub,2013-06-04 17:10:00,
2013-06-04 13:15:00,68.0,49.6,30.15,SE,129,4.0,7.0,52,0.00,,,0.00,meteohub,2013-06-04 17:15:00,
2013-06-04 13:20:00,68.5,52.7,30.16,SW,234,2.0,7.0,57,0.00,,,0.00,meteohub,2013-06-04 17:20:00,
2013-06-04 13:25:00,69.3,50.9,30.16,SE,143,3.0,6.0,52,0.00,,,0.00,meteohub,2013-06-04 17:25:00,
2013-06-04 13:31:00,69.6,50.7,30.16,WSW,256,3.0,6.0,51,0.00,,,0.00,meteohub,2013-06-04 17:31:00,
2013-06-04 13:36:00,69.3,51.4,30.16,SSE,167,4.0,6.0,53,0.00,,,0.00,meteohub,2013-06-04 17:36:00,
2013-06-04 13:41:00,69.1,49.6,30.15,SSE,151,6.0,6.0,50,0.00,,,0.00,meteohub,2013-06-04 17:41:00,
2013-06-04 13:46:00,68.7,50.4,30.16,SSW,211,4.0,9.0,52,0.00,,,0.00,meteohub,2013-06-04 17:46:00,
2013-06-04 13:51:00,68.7,49.3,30.16,South,180,1.0,9.0,50,0.00,,,0.00,meteohub,2013-06-04 17:51:00,
2013-06-04 13:56:00,69.3,49.8,30.15,SSE,155,6.0,8.0,50,0.00,,,0.00,meteohub,2013-06-04 17:56:00,
2013-06-04 14:01:00,69.1,49.6,30.15,SSE,155,2.0,8.0,50,0.00,,,0.00,meteohub,2013-06-04 18:01:00,
2013-06-04 14:06:00,69.4,50.5,30.15,SE,139,5.0,8.0,51,0.00,,,0.00,meteohub,2013-06-04 18:06:00,
2013-06-04 14:11:00,69.4,50.0,30.14,South,174,2.0,8.0,50,0.00,,,0.00,meteohub,2013-06-04 18:11:00,
2013-06-04 14:16:00,69.6,50.2,30.14,SSE,152,1.0,8.0,50,0.00,,,0.00,meteohub,2013-06-04 18:16:00,
2013-06-04 14:21:00,70.0,50.0,30.13,SE,143,0.0,8.0,49,0.00,,,0.00,meteohub,2013-06-04 18:21:00,
2013-06-04 14:26:00,70.3,49.6,30.13,WSW,248,0.0,6.0,48,0.00,,,0.00,meteohub,2013-06-04 18:26:00,
2013-06-04 14:31:00,71.2,51.6,30.13,ESE,110,5.0,6.0,50,0.00,,,0.00,meteohub,2013-06-04 18:31:00,
2013-06-04 14:37:00,70.9,50.2,30.13,SE,124,2.0,5.0,48,0.00,,,0.00,meteohub,2013-06-04 18:37:00,
2013-06-04 14:42:00,70.7,50.5,30.13,ESE,113,6.0,6.0,49,0.00,,,0.00,meteohub,2013-06-04 18:42:00,
2013-06-04 14:47:00,70.0,50.0,30.13,ESE,115,3.0,8.0,49,0.00,,,0.00,meteohub,2013-06-04 18:47:00,
2013-06-04 14:52:00,69.8,50.4,30.12,ENE,71,5.0,8.0,50,0.00,,,0.00,meteohub,2013-06-04 18:52:00,
2013-06-04 14:57:00,69.6,50.7,30.13,ENE,69,2.0,8.0,51,0.00,,,0.00,meteohub,2013-06-04 18:57:00,
2013-06-04 15:02:00,70.3,52.3,30.13,NNE,25,4.0,8.0,53,0.00,,,0.00,meteohub,2013-06-04 19:02:00,
2013-06-04 15:07:00,70.2,49.6,30.13,ENE,63,4.0,8.0,48,0.00,,,0.00,meteohub,2013-06-04 19:07:00,
2013-06-04 15:12:00,70.0,49.5,30.13,SE,134,2.0,9.0,48,0.00,,,0.00,meteohub,2013-06-04 19:12:00,
2013-06-04 15:17:00,70.5,49.8,30.13,SE,129,2.0,9.0,48,0.00,,,0.00,meteohub,2013-06-04 19:17:00,
2013-06-04 15:22:00,70.9,49.6,30.13,SE,124,3.0,6.0,47,0.00,,,0.00,meteohub,2013-06-04 19:22:00,
2013-06-04 15:27:00,71.1,50.9,30.12,ESE,115,1.0,5.0,49,0.00,,,0.00,meteohub,2013-06-04 19:27:00,
2013-06-04 15:33:00,71.2,50.0,30.12,NW,308,0.0,5.0,47,0.00,,,0.00,meteohub,2013-06-04 19:33:00,
2013-06-04 15:38:00,72.0,52.3,30.12,East,90,4.0,4.0,50,0.00,,,0.00,meteohub,2013-06-04 19:38:00,
2013-06-04 15:43:00,72.0,50.0,30.12,WNW,301,4.0,6.0,46,0.00,,,0.00,meteohub,2013-06-04 19:43:00,
2013-06-04 15:48:00,70.9,48.6,30.12,WNW,284,3.0,7.0,45,0.00,,,0.00,meteohub,2013-06-04 19:48:00,
2013-06-04 15:53:00,70.5,49.3,30.12,WNW,293,3.0,7.0,47,0.00,,,0.00,meteohub,2013-06-04 19:53:00,
2013-06-04 15:58:00,70.9,49.6,30.13,WNW,297,3.0,7.0,47,0.00,,,0.00,meteohub,2013-06-04 19:58:00,
2013-06-04 16:03:00,71.1,48.6,30.13,NW,318,3.0,5.0,45,0.00,,,0.00,meteohub,2013-06-04 20:03:00,
2013-06-04 16:08:00,71.1,49.3,30.13,WSW,248,3.0,7.0,46,0.00,,,0.00,meteohub,2013-06-04 20:08:00,
2013-06-04 16:13:00,71.4,49.6,30.13,West,262,1.0,7.0,46,0.00,,,0.00,meteohub,2013-06-04 20:13:00,
2013-06-04 16:18:00,72.0,50.7,30.12,East,84,6.0,7.0,47,0.00,,,0.00,meteohub,2013-06-04 20:18:00,
2013-06-04 16:23:00,71.1,49.8,30.12,ENE,71,5.0,9.0,47,0.00,,,0.00,meteohub,2013-06-04 20:23:00,
2013-06-04 16:28:00,70.3,49.6,30.12,NE,49,3.0,12.0,48,0.00,,,0.00,meteohub,2013-06-04 20:28:00,
2013-06-04 16:33:00,70.2,50.2,30.12,ESE,116,4.0,12.0,49,0.00,,,0.00,meteohub,2013-06-04 20:33:00,
2013-06-04 16:38:00,70.2,49.6,30.12,SE,127,6.0,12.0,48,0.00,,,0.00,meteohub,2013-06-04 20:38:00,
2013-06-04 16:44:00,70.5,50.9,30.12,SE,135,2.0,7.0,50,0.00,,,0.00,meteohub,2013-06-04 20:44:00,
2013-06-04 16:49:00,71.8,51.6,30.12,SE,134,0.0,7.0,49,0.00,,,0.00,meteohub,2013-06-04 20:49:00,
2013-06-04 16:54:00,72.7,49.5,30.12,ENE,72,4.0,7.0,44,0.00,,,0.00,meteohub,2013-06-04 20:54:00,
2013-06-04 16:59:00,72.0,48.9,30.11,East,91,6.0,6.0,44,0.00,,,0.00,meteohub,2013-06-04 20:59:00,
2013-06-04 17:04:00,71.2,50.0,30.11,ENE,77,2.0,8.0,47,0.00,,,0.00,meteohub,2013-06-04 21:04:00,
2013-06-04 17:09:00,71.8,50.5,30.11,North,6,3.0,8.0,47,0.00,,,0.00,meteohub,2013-06-04 21:09:00,
2013-06-04 17:14:00,71.8,50.5,30.11,ENE,69,1.0,8.0,47,0.00,,,0.00,meteohub,2013-06-04 21:14:00,
2013-06-04 17:19:00,72.0,50.7,30.11,ESE,116,2.0,6.0,47,0.00,,,0.00,meteohub,2013-06-04 21:19:00,
2013-06-04 17:24:00,72.3,51.4,30.10,SE,129,3.0,6.0,48,0.00,,,0.00,meteohub,2013-06-04 21:24:00,
2013-06-04 17:29:00,72.1,51.4,30.11,NE,51,5.0,6.0,48,0.00,,,0.00,meteohub,2013-06-04 21:29:00,
2013-06-04 17:34:00,72.0,50.0,30.10,North,9,4.0,8.0,46,0.00,,,0.00,meteohub,2013-06-04 21:34:00,
2013-06-04 17:39:00,71.8,50.5,30.10,ESE,102,6.0,8.0,47,0.00,,,0.00,meteohub,2013-06-04 21:39:00,
2013-06-04 17:44:00,71.4,51.3,30.10,SE,128,5.0,8.0,49,0.00,,,0.00,meteohub,2013-06-04 21:44:00,
2013-06-04 17:49:00,71.4,50.2,30.10,East,96,2.0,8.0,47,0.00,,,0.00,meteohub,2013-06-04 21:49:00,
2013-06-04 17:54:00,71.2,50.0,30.10,ESE,113,3.0,7.0,47,0.00,,,0.00,meteohub,2013-06-04 21:54:00,
2013-06-04 17:59:00,71.4,51.8,30.10,ENE,71,4.0,7.0,50,0.00,,,0.00,meteohub,2013-06-04 21:59:00,
2013-06-04 18:04:00,71.2,49.5,30.10,ENE,65,4.0,7.0,46,0.00,,,0.00,meteohub,2013-06-04 22:04:00,
2013-06-04 18:09:00,70.9,50.2,30.10,ENE,68,3.0,7.0,48,0.00,,,0.00,meteohub,2013-06-04 22:09:00,
2013-06-04 18:14:00,70.7,50.5,30.10,ENE,68,4.0,8.0,49,0.00,,,0.00,meteohub,2013-06-04 22:14:00,
2013-06-04 18:19:00,70.5,50.4,30.10,East,84,2.0,8.0,49,0.00,,,0.00,meteohub,2013-06-04 22:19:00,
2013-06-04 18:24:00,70.3,50.9,30.10,ENE,58,4.0,8.0,50,0.00,,,0.00,meteohub,2013-06-04 22:24:00,
2013-06-04 18:29:00,70.2,50.7,30.09,East,80,3.0,8.0,50,0.00,,,0.00,meteohub,2013-06-04 22:29:00,
2013-06-04 18:34:00,70.2,51.3,30.09,East,99,4.0,7.0,51,0.00,,,0.00,meteohub,2013-06-04 22:34:00,
2013-06-04 18:40:00,70.2,50.7,30.10,East,85,5.0,7.0,50,0.00,,,0.00,meteohub,2013-06-04 22:40:00,
2013-06-04 18:45:00,70.2,50.7,30.09,ENE,74,5.0,7.0,50,0.00,,,0.00,meteohub,2013-06-04 22:45:00,
2013-06-04 18:50:00,70.3,52.3,30.09,East,87,2.0,7.0,53,0.00,,,0.00,meteohub,2013-06-04 22:50:00,
2013-06-04 18:55:00,70.3,50.9,30.09,ESE,108,5.0,6.0,50,0.00,,,0.00,meteohub,2013-06-04 22:55:00,
2013-06-04 19:00:00,70.2,51.3,30.09,ESE,113,5.0,6.0,51,0.00,,,0.00,meteohub,2013-06-04 23:00:00,
2013-06-04 19:05:00,70.2,52.7,30.09,East,95,3.0,7.0,54,0.00,,,0.00,meteohub,2013-06-04 23:05:00,
2013-06-04 19:10:00,70.0,51.1,30.09,ENE,71,3.0,7.0,51,0.00,,,0.00,meteohub,2013-06-04 23:10:00,
2013-06-04 19:15:00,69.8,50.9,30.09,East,87,4.0,5.0,51,0.00,,,0.00,meteohub,2013-06-04 23:15:00,
2013-06-04 19:20:00,69.6,51.3,30.09,East,88,3.0,5.0,52,0.00,,,0.00,meteohub,2013-06-04 23:20:00,
2013-06-04 19:25:00,69.6,51.8,30.09,ENE,74,2.0,5.0,53,0.00,,,0.00,meteohub,2013-06-04 23:25:00,
2013-06-04 19:30:00,69.6,51.8,30.09,East,83,4.0,5.0,53,0.00,,,0.00,meteohub,2013-06-04 23:30:00,
2013-06-04 19:35:00,69.6,51.8,30.09,East,98,4.0,5.0,53,0.00,,,0.00,meteohub,2013-06-04 23:35:00,
2013-06-04 19:40:00,69.4,52.2,30.09,ESE,108,3.0,4.0,54,0.00,,,0.00,meteohub,2013-06-04 23:40:00,
2013-06-04 19:45:00,69.4,52.2,30.10,ESE,115,4.0,8.0,54,0.00,,,0.00,meteohub,2013-06-04 23:45:00,
2013-06-04 19:50:00,69.6,51.3,30.10,East,99,5.0,8.0,52,0.00,,,0.00,meteohub,2013-06-04 23:50:00,
2013-06-04 19:55:00,69.6,51.3,30.10,ESE,115,4.0,6.0,52,0.00,,,0.00,meteohub,2013-06-04 23:55:00,
2013-06-04 20:00:00,69.4,51.6,30.10,East,98,2.0,6.0,53,0.00,,,0.00,meteohub,2013-06-05 00:00:00,
2013-06-04 20:05:00,69.1,51.3,30.10,ESE,107,4.0,6.0,53,0.00,,,0.00,meteohub,2013-06-05 00:05:00,
2013-06-04 20:10:00,68.9,52.0,30.10,East,87,2.0,6.0,55,0.00,,,0.00,meteohub,2013-06-05 00:10:00,
2013-06-04 20:15:00,68.7,51.4,30.09,SE,129,3.0,6.0,54,0.00,,,0.00,meteohub,2013-06-05 00:15:00,
2013-06-04 20:20:00,68.5,52.2,30.10,East,85,2.0,6.0,56,0.00,,,0.00,meteohub,2013-06-05 00:20:00,
2013-06-04 20:25:00,68.4,51.6,30.10,ESE,108,1.0,6.0,55,0.00,,,0.00,meteohub,2013-06-05 00:25:00,
2013-06-04 20:30:00,68.2,51.8,30.09,ESE,102,1.0,6.0,56,0.00,,,0.00,meteohub,2013-06-05 00:30:00,
2013-06-04 20:35:00,68.0,51.8,30.10,ENE,75,3.0,6.0,56,0.00,,,0.00,meteohub,2013-06-05 00:35:00,
2013-06-04 20:41:00,67.8,52.0,30.10,East,95,1.0,6.0,57,0.00,,,0.00,meteohub,2013-06-05 00:41:00,
2013-06-04 20:46:00,67.6,52.9,30.10,East,101,1.0,4.0,59,0.00,,,0.00,meteohub,2013-06-05 00:46:00,
2013-06-04 20:51:00,67.3,52.0,30.10,ENE,71,4.0,5.0,58,0.00,,,0.00,meteohub,2013-06-05 00:51:00,
2013-06-04 20:56:00,66.9,52.5,30.09,East,99,2.0,5.0,60,0.00,,,0.00,meteohub,2013-06-05 00:56:00,
2013-06-04 21:01:00,66.6,52.7,30.09,East,91,2.0,5.0,61,0.00,,,0.00,meteohub,2013-06-05 01:01:00,
2013-06-04 21:06:00,66.0,52.7,30.09,East,96,0.0,5.0,62,0.00,,,0.00,meteohub,2013-06-05 01:06:00,
2013-06-04 21:11:00,65.7,52.7,30.09,East,96,2.0,3.0,63,0.00,,,0.00,meteohub,2013-06-05 01:11:00,
2013-06-04 21:16:00,65.3,53.2,30.09,ESE,102,1.0,3.0,65,0.00,,,0.00,meteohub,2013-06-05 01:16:00,
2013-06-04 21:21:00,64.8,52.7,30.09,ESE,110,2.0,3.0,65,0.00,,,0.00,meteohub,2013-06-05 01:21:00,
2013-06-04 21:26:00,64.6,52.5,30.09,ESE,110,1.0,4.0,65,0.00,,,0.00,meteohub,2013-06-05 01:26:00,
2013-06-04 21:31:00,64.4,52.3,30.09,East,83,1.0,4.0,65,0.00,,,0.00,meteohub,2013-06-05 01:31:00,
2013-06-04 21:36:00,64.2,52.7,30.09,East,84,0.0,4.0,66,0.00,,,0.00,meteohub,2013-06-05 01:36:00,
2013-06-04 21:41:00,64.0,52.9,30.10,East,86,0.0,3.0,67,0.00,,,0.00,meteohub,2013-06-05 01:41:00,
2013-06-04 21:46:00,63.9,53.4,30.09,East,86,0.0,3.0,69,0.00,,,0.00,meteohub,2013-06-05 01:46:00,
2013-06-04 21:51:00,63.7,52.9,30.09,ESE,110,2.0,2.0,68,0.00,,,0.00,meteohub,2013-06-05 01:51:00,
2013-06-04 21:57:00,63.5,52.3,30.09,ESE,102,3.0,5.0,67,0.00,,,0.00,meteohub,2013-06-05 01:57:00,
2013-06-04 22:02:00,63.9,52.3,30.09,ESE,118,3.0,5.0,66,0.00,,,0.00,meteohub,2013-06-05 02:02:00,
2013-06-04 22:07:00,64.0,52.0,30.09,ESE,110,3.0,6.0,65,0.00,,,0.00,meteohub,2013-06-05 02:07:00,
2013-06-04 22:12:00,64.0,52.0,30.09,East,82,3.0,6.0,65,0.00,,,0.00,meteohub,2013-06-05 02:12:00,
2013-06-04 22:17:00,64.2,51.8,30.09,East,83,3.0,6.0,64,0.00,,,0.00,meteohub,2013-06-05 02:17:00,
2013-06-04 22:22:00,64.2,51.8,30.10,East,85,1.0,6.0,64,0.00,,,0.00,meteohub,2013-06-05 02:22:00,
2013-06-04 22:27:00,64.0,51.3,30.09,East,81,1.0,6.0,63,0.00,,,0.00,meteohub,2013-06-05 02:27:00,
2013-06-04 22:32:00,64.0,50.7,30.09,ESE,102,3.0,6.0,62,0.00,,,0.00,meteohub,2013-06-05 02:32:00,
2013-06-04 22:37:00,64.0,50.4,30.09,East,92,6.0,7.0,61,0.00,,,0.00,meteohub,2013-06-05 02:37:00,
2013-06-04 22:42:00,64.0,49.8,30.09,East,98,3.0,7.0,60,0.00,,,0.00,meteohub,2013-06-05 02:42:00,
2013-06-04 22:47:00,64.0,49.8,30.10,ENE,71,4.0,7.0,60,0.00,,,0.00,meteohub,2013-06-05 02:47:00,
2013-06-04 22:52:00,64.0,49.8,30.09,ESE,103,4.0,8.0,60,0.00,,,0.00,meteohub,2013-06-05 02:52:00,
2013-06-04 22:57:00,63.9,49.3,30.10,SE,133,4.0,8.0,59,0.00,,,0.00,meteohub,2013-06-05 02:57:00,
2013-06-04 23:02:00,63.9,49.6,30.10,East,98,3.0,8.0,60,0.00,,,0.00,meteohub,2013-06-05 03:02:00,
2013-06-04 23:07:00,63.9,49.6,30.10,ESE,102,5.0,9.0,60,0.00,,,0.00,meteohub,2013-06-05 03:07:00,
2013-06-04 23:12:00,63.7,49.5,30.10,East,91,5.0,9.0,60,0.00,,,0.00,meteohub,2013-06-05 03:12:00,
2013-06-04 23:18:00,63.5,49.3,30.10,SE,129,2.0,9.0,60,0.00,,,0.00,meteohub,2013-06-05 03:18:00,
2013-06-04 23:23:00,63.3,49.3,30.10,ESE,113,7.0,8.0,60,0.00,,,0.00,meteohub,2013-06-05 03:23:00,
2013-06-04 23:28:00,63.3,49.3,30.10,East,94,5.0,8.0,60,0.00,,,0.00,meteohub,2013-06-05 03:28:00,
2013-06-04 23:33:00,63.3,49.6,30.10,East,79,3.0,9.0,61,0.00,,,0.00,meteohub,2013-06-05 03:33:00,
2013-06-04 23:38:00,63.1,49.1,30.10,East,86,7.0,9.0,60,0.00,,,0.00,meteohub,2013-06-05 03:38:00,
2013-06-04 23:43:00,63.1,49.1,30.09,East,90,4.0,9.0,60,0.00,,,0.00,meteohub,2013-06-05 03:43:00,
2013-06-04 23:48:00,63.1,49.1,30.09,ENE,64,4.0,8.0,60,0.00,,,0.00,meteohub,2013-06-05 03:48:00,
2013-06-04 23:53:00,63.0,48.9,30.09,East,88,4.0,7.0,60,0.00,,,0.00,meteohub,2013-06-05 03:53:00,
2013-06-04 23:58:00,62.8,49.1,30.09,ESE,103,4.0,7.0,61,0.00,,,0.00,meteohub,2013-06-05 03:58:00,